Time,TemperatureF,DewpointF,PressureIn,WindDirection,WindDirectionDegrees,WindSpeedMPH,WindSpeedGustMPH,Humidity,HourlyPrecipIn,Conditions,Clouds,dailyrainin,SoftwareType,DateUTC
2013-07-14 00:02:00,71.1,70.5,29.75,WNW,292,0.0,-999.0,98,-99.99,,,0.00,Acu-Link.com,2013-07-14 05:02:00,
2013-07-14 00:18:00,70.9,70.3,29.75,SSE,157,0.0,-999.0,98,-99.99,,,0.00,Acu-Link.com,2013-07-14 05:18:00,
2013-07-14 00:33:00,70.5,69.9,29.75,WSW,247,0.0,-999.0,98,-99.99,,,0.00,Acu-Link.com,2013-07-14 05:33:00,
2013-07-14 00:48:00,70.5,69.9,29.75,West,270,0.0,-999.0,98,-99.99,,,0.00,Acu-Link.com,2013-07-14 05:48:00,
2013-07-14 01:03:00,70.3,69.7,29.74,SW,225,0.0,-999.0,98,-99.99,,,0.00,Acu-Link.com,2013-07-14 06:03:00,
2013-07-14 01:18:00,70.2,69.6,29.74,NW,315,0.0,-999.0,98,-99.99,,,0.00,Acu-Link.com,2013-07-14 06:18:00,
2013-07-14 01:33:00,70.3,69.7,29.75,SW,225,0.0,-999.0,98,-99.99,,,0.00,Acu-Link.com,2013-07-14 06:33:00,
2013-07-14 01:48:00,70.5,69.9,29.74,WNW,292,0.0,-999.0,98,-99.99,,,0.00,Acu-Link.com,2013-07-14 06:48:00,
2013-07-14 02:03:00,70.5,69.9,29.74,East,90,0.0,-999.0,98,-99.99,,,0.00,Acu-Link.com,2013-07-14 07:03:00,
2013-07-14 02:18:00,70.7,70.1,29.73,West,270,0.0,-999.0,98,-99.99,,,0.00,Acu-Link.com,2013-07-14 07:18:00,
2013-07-14 02:33:00,70.7,70.1,29.73,NE,45,0.0,-999.0,98,-99.99,,,0.00,Acu-Link.com,2013-07-14 07:33:00,
2013-07-14 02:49:00,70.9,70.3,29.74,West,270,0.0,-999.0,98,-99.99,,,0.00,Acu-Link.com,2013-07-14 07:49:00,
2013-07-14 03:04:00,70.9,70.3,29.73,West,270,0.0,-999.0,98,-99.99,,,0.00,Acu-Link.com,2013-07-14 08:04:00,
2013-07-14 03:19:00,70.7,70.1,29.73,SW,225,0.0,-999.0,98,-99.99,,,0.00,Acu-Link.com,2013-07-14 08:19:00,
2013-07-14 03:35:00,70.7,70.1,29.73,ESE,112,0.0,-999.0,98,-99.99,,,0.00,Acu-Link.com,2013-07-14 08:35:00,
2013-07-14 03:50:00,70.5,69.9,29.73,SSE,157,0.0,-999.0,98,-99.99,,,0.00,Acu-Link.com,2013-07-14 08:50:00,
2013-07-14 04:05:00,70.3,69.7,29.74,SW,225,0.0,-999.0,98,-99.99,,,0.00,Acu-Link.com,2013-07-14 09:05:00,
2013-07-14 04:20:00,70.7,70.1,29.75,ESE,112,0.0,-999.0,98,-99.99,,,0.00,Acu-Link.com,2013-07-14 09:20:00,
2013-07-14 04:35:00,70.9,70.3,29.75,ESE,112,0.0,-999.0,98,-99.99,,,0.00,Acu-Link.com,2013-07-14 09:35:00,
2013-07-14 04:50:00,71.1,70.5,29.76,NE,45,0.0,-999.0,98,-99.99,,,0.00,Acu-Link.com,2013-07-14 09:50:00,
2013-07-14 05:06:00,70.9,70.3,29.76,ESE,112,0.0,-999.0,98,-99.99,,,0.00,Acu-Link.com,2013-07-14 10:06:00,
2013-07-14 05:21:00,70.7,70.1,29.76,NNE,22,0.0,-999.0,98,-99.99,,,0.00,Acu-Link.com,2013-07-14 10:21:00,
2013-07-14 05:36:00,70.5,69.9,29.77,ESE,112,0.0,-999.0,98,-99.99,,,0.00,Acu-Link.com,2013-07-14 10:36:00,
2013-07-14 05:51:00,70.7,70.1,29.77,ENE,67,0.0,-999.0,98,-99.99,,,0.00,Acu-Link.com,2013-07-14 10:51:00,
2013-07-14 06:06:00,70.7,70.1,29.78,ESE,112,1.1,-999.0,98,-99.99,,,0.00,Acu-Link.com,2013-07-14 11:06:00,
2013-07-14 06:21:00,71.1,70.5,29.78,ESE,112,1.1,-999.0,98,-99.99,,,0.00,Acu-Link.com,2013-07-14 11:21:00,
2013-07-14 06:36:00,71.2,70.6,29.77,ESE,112,2.7,-999.0,98,-99.99,,,0.00,Acu-Link.com,2013-07-14 11:36:00,
2013-07-14 06:51:00,71.6,71.0,29.78,SSW,202,1.7,-999.0,98,-99.99,,,0.00,Acu-Link.com,2013-07-14 11:51:00,
2013-07-14 07:06:00,72.0,71.4,29.78,East,90,0.0,-999.0,98,-99.99,,,0.00,Acu-Link.com,2013-07-14 12:06:00,
2013-07-14 07:21:00,72.3,71.7,29.79,East,90,1.7,-999.0,98,-99.99,,,0.00,Acu-Link.com,2013-07-14 12:21:00,
2013-07-14 07:37:00,73.8,73.2,29.78,NE,45,1.1,-999.0,98,-99.99,,,0.00,Acu-Link.com,2013-07-14 12:37:00,
2013-07-14 07:52:00,75.0,74.4,29.79,ESE,112,1.7,-999.0,98,-99.99,,,0.00,Acu-Link.com,2013-07-14 12:52:00,
2013-07-14 08:07:00,77.5,76.9,29.80,East,90,3.7,-999.0,98,-99.99,,,0.00,Acu-Link.com,2013-07-14 13:07:00,
2013-07-14 08:22:00,76.8,76.2,29.81,ESE,112,2.2,-999.0,98,-99.99,,,0.00,Acu-Link.com,2013-07-14 13:22:00,
2013-07-14 08:37:00,76.8,76.2,29.82,East,90,4.2,-999.0,98,-99.99,,,0.00,Acu-Link.com,2013-07-14 13:37:00,
2013-07-14 08:52:00,77.2,76.6,29.82,East,90,0.0,-999.0,98,-99.99,,,0.00,Acu-Link.com,2013-07-14 13:52:00,
2013-07-14 09:07:00,77.7,77.1,29.83,NE,45,2.7,-999.0,98,-99.99,,,0.00,Acu-Link.com,2013-07-14 14:07:00,
2013-07-14 09:22:00,77.7,77.1,29.82,ENE,67,2.7,-999.0,98,-99.99,,,0.00,Acu-Link.com,2013-07-14 14:22:00,
2013-07-14 09:37:00,79.3,78.7,29.82,SSW,202,2.2,-999.0,98,-99.99,,,0.00,Acu-Link.com,2013-07-14 14:37:00,
2013-07-14 09:53:00,79.9,79.3,29.81,ESE,112,4.7,-999.0,98,-99.99,,,0.00,Acu-Link.com,2013-07-14 14:53:00,
2013-07-14 10:08:00,79.5,78.9,29.82,ENE,67,1.7,-999.0,98,-99.99,,,0.00,Acu-Link.com,2013-07-14 15:08:00,
2013-07-14 10:23:00,78.6,78.0,29.82,ESE,112,4.2,-999.0,98,-99.99,,,0.00,Acu-Link.com,2013-07-14 15:23:00,
2013-07-14 10:38:00,79.3,78.7,29.82,East,90,4.7,-999.0,98,-99.99,,,0.00,Acu-Link.com,2013-07-14 15:38:00,
2013-07-14 10:53:00,81.0,80.4,29.82,NE,45,4.7,-999.0,98,-99.99,,,0.00,Acu-Link.com,2013-07-14 15:53:00,
2013-07-14 11:08:00,82.2,81.6,29.82,ESE,112,3.7,-999.0,98,-99.99,,,0.00,Acu-Link.com,2013-07-14 16:08:00,
2013-07-14 11:23:00,82.4,81.8,29.81,West,270,2.7,-999.0,98,-99.99,,,0.00,Acu-Link.com,2013-07-14 16:23:00,
2013-07-14 11:38:00,83.1,82.5,29.82,NNE,22,2.7,-999.0,98,-99.99,,,0.00,Acu-Link.com,2013-07-14 16:38:00,
2013-07-14 11:53:00,83.8,83.2,29.81,ESE,112,3.2,-999.0,98,-99.99,,,0.00,Acu-Link.com,2013-07-14 16:53:00,
2013-07-14 12:09:00,84.4,83.8,29.81,SSE,157,4.2,-999.0,98,-99.99,,,0.00,Acu-Link.com,2013-07-14 17:09:00,
2013-07-14 12:24:00,85.5,84.9,29.81,ESE,112,1.7,-999.0,98,-99.99,,,0.00,Acu-Link.com,2013-07-14 17:24:00,
2013-07-14 12:39:00,86.0,85.4,29.80,East,90,3.2,-999.0,98,-99.99,,,0.00,Acu-Link.com,2013-07-14 17:39:00,
2013-07-14 12:54:00,85.8,85.2,29.80,ENE,67,4.7,-999.0,98,-99.99,,,0.00,Acu-Link.com,2013-07-14 17:54:00,
2013-07-14 13:09:00,86.0,85.4,29.81,North,0,4.7,-999.0,98,-99.99,,,0.00,Acu-Link.com,2013-07-14 18:09:00,
2013-07-14 13:24:00,87.1,86.5,29.80,SSE,157,4.2,-999.0,98,-99.99,,,0.00,Acu-Link.com,2013-07-14 18:24:00,
2013-07-14 13:39:00,86.0,85.4,29.79,SSE,157,5.3,-999.0,98,-99.99,,,0.00,Acu-Link.com,2013-07-14 18:39:00,
2013-07-14 13:54:00,86.7,86.1,29.78,SE,135,2.7,-999.0,98,-99.99,,,0.00,Acu-Link.com,2013-07-14 18:54:00,
2013-07-14 14:09:00,87.8,87.2,29.78,SE,135,2.2,-999.0,98,-99.99,,,0.00,Acu-Link.com,2013-07-14 19:09:00,
2013-07-14 14:25:00,86.9,86.3,29.77,SSE,157,4.2,-999.0,98,-99.99,,,0.00,Acu-Link.com,2013-07-14 19:25:00,
2013-07-14 14:40:00,84.0,83.4,29.78,South,180,4.2,-999.0,98,-99.99,,,0.00,Acu-Link.com,2013-07-14 19:40:00,
2013-07-14 14:55:00,81.3,80.7,29.77,South,180,3.2,-999.0,98,-99.99,,,0.00,Acu-Link.com,2013-07-14 19:55:00,
2013-07-14 15:10:00,85.8,85.2,29.77,SSE,157,3.2,-999.0,98,-99.99,,,0.00,Acu-Link.com,2013-07-14 20:10:00,
2013-07-14 15:25:00,87.4,86.8,29.76,NNE,22,5.3,-999.0,98,-99.99,,,0.00,Acu-Link.com,2013-07-14 20:25:00,
2013-07-14 15:40:00,87.3,86.7,29.76,ESE,112,3.2,-999.0,98,-99.99,,,0.00,Acu-Link.com,2013-07-14 20:40:00,
2013-07-14 15:55:00,87.1,86.5,29.76,ESE,112,5.3,-999.0,98,-99.99,,,0.00,Acu-Link.com,2013-07-14 20:55:00,
2013-07-14 16:10:00,88.3,87.7,29.76,ESE,112,6.8,-999.0,98,-99.99,,,0.00,Acu-Link.com,2013-07-14 21:10:00,
2013-07-14 16:25:00,85.3,84.7,29.77,ESE,112,4.7,-999.0,98,-99.99,,,0.00,Acu-Link.com,2013-07-14 21:25:00,
2013-07-14 16:41:00,88.3,87.7,29.77,SE,135,1.7,-999.0,98,-99.99,,,0.00,Acu-Link.com,2013-07-14 21:41:00,
2013-07-14 16:56:00,88.7,88.1,29.76,SE,135,3.7,-999.0,98,-99.99,,,0.00,Acu-Link.com,2013-07-14 21:56:00,
2013-07-14 17:11:00,91.0,90.4,29.76,ESE,112,3.7,-999.0,98,-99.99,,,0.00,Acu-Link.com,2013-07-14 22:11:00,
2013-07-14 17:26:00,88.7,88.1,29.76,ESE,112,3.2,-999.0,98,-99.99,,,0.00,Acu-Link.com,2013-07-14 22:26:00,
2013-07-14 17:41:00,86.7,86.1,29.76,East,90,2.2,-999.0,98,-99.99,,,0.00,Acu-Link.com,2013-07-14 22:41:00,
2013-07-14 17:56:00,86.5,85.9,29.76,WNW,292,1.7,-999.0,98,-99.99,,,0.00,Acu-Link.com,2013-07-14 22:56:00,
2013-07-14 18:11:00,85.6,85.0,29.78,South,180,3.2,-999.0,98,-99.99,,,0.00,Acu-Link.com,2013-07-14 23:11:00,
2013-07-14 18:26:00,83.8,83.2,29.77,SSW,202,0.0,-999.0,98,-99.99,,,0.00,Acu-Link.com,2013-07-14 23:26:00,
2013-07-14 18:41:00,82.0,81.4,29.78,NNW,337,0.0,-999.0,98,-99.99,,,0.00,Acu-Link.com,2013-07-14 23:41:00,
2013-07-14 18:57:00,81.7,81.1,29.77,NW,315,0.0,-999.0,98,-99.99,,,0.00,Acu-Link.com,2013-07-14 23:57:00,
2013-07-14 19:12:00,80.8,80.2,29.77,WNW,292,0.0,-999.0,98,-99.99,,,0.00,Acu-Link.com,2013-07-15 00:12:00,
2013-07-14 19:27:00,80.4,79.8,29.78,WNW,292,2.2,-999.0,98,-99.99,,,0.00,Acu-Link.com,2013-07-15 00:27:00,
2013-07-14 19:42:00,79.7,79.1,29.79,NE,45,1.7,-999.0,98,-99.99,,,0.00,Acu-Link.com,2013-07-15 00:42:00,
2013-07-14 19:57:00,78.6,78.0,29.79,NW,315,0.0,-999.0,98,-99.99,,,0.00,Acu-Link.com,2013-07-15 00:57:00,
2013-07-14 20:12:00,78.3,77.7,29.79,ESE,112,1.1,-999.0,98,-99.99,,,0.00,Acu-Link.com,2013-07-15 01:12:00,
2013-07-14 20:27:00,78.1,77.5,29.80,NNE,22,3.2,-999.0,98,-99.99,,,0.00,Acu-Link.com,2013-07-15 01:27:00,
2013-07-14 20:42:00,77.2,76.6,29.81,East,90,5.3,-999.0,98,-99.99,,,0.00,Acu-Link.com,2013-07-15 01:42:00,
2013-07-14 20:57:00,77.2,76.6,29.81,NNE,22,3.7,-999.0,98,-99.99,,,0.00,Acu-Link.com,2013-07-15 01:57:00,
2013-07-14 21:13:00,76.5,75.9,29.83,NNE,22,1.1,-999.0,98,-99.99,,,0.00,Acu-Link.com,2013-07-15 02:13:00,
2013-07-14 21:28:00,75.9,75.3,29.84,ESE,112,2.2,-999.0,98,-99.99,,,0.00,Acu-Link.com,2013-07-15 02:28:00,
2013-07-14 21:43:00,75.6,75.0,29.85,ENE,67,0.0,-999.0,98,-99.99,,,0.00,Acu-Link.com,2013-07-15 02:43:00,
2013-07-14 21:58:00,75.0,74.4,29.85,West,270,0.0,-999.0,98,-99.99,,,0.00,Acu-Link.com,2013-07-15 02:58:00,
2013-07-14 22:13:00,74.8,74.2,29.85,East,90,1.1,-999.0,98,-99.99,,,0.00,Acu-Link.com,2013-07-15 03:13:00,
2013-07-14 22:28:00,75.0,74.4,29.86,West,270,1.7,-999.0,98,-99.99,,,0.00,Acu-Link.com,2013-07-15 03:28:00,
2013-07-14 22:43:00,75.0,74.4,29.87,NE,45,2.2,-999.0,98,-99.99,,,0.00,Acu-Link.com,2013-07-15 03:43:00,
2013-07-14 22:58:00,75.4,74.8,29.87,SE,135,2.2,-999.0,98,-99.99,,,0.00,Acu-Link.com,2013-07-15 03:58:00,
2013-07-14 23:13:00,75.6,75.0,29.87,SSW,202,1.1,-999.0,98,-99.99,,,0.00,Acu-Link.com,2013-07-15 04:13:00,
2013-07-14 23:29:00,75.6,75.0,29.86,ENE,67,2.7,-999.0,98,-99.99,,,0.00,Acu-Link.com,2013-07-15 04:29:00,
2013-07-14 23:44:00,75.0,74.4,29.86,South,180,2.2,-999.0,98,-99.99,,,0.00,Acu-Link.com,2013-07-15 04:44:00,
2013-07-14 23:59:00,74.7,74.1,29.86,North,0,0.0,-999.0,98,-99.99,,,0.00,Acu-Link.com,2013-07-15 04:59:00,